This demonstration page uses our WeatherBlox Daily Observations layout. Learn more.

Left ArrowRight Arrow

38.83388, -104.82136

Hourly Observations for March 30, 2021

Temp ( °F °C ) Dew Point ( °F °C ) Humidity (%) Winds ( mph kmh ) Pressure ( in mb ) Visibility ( mi km ) Precip ( " mm )
12:58 am 00:58 Clear 27 -2.7 19 -7.5 70 70 NNW 24 39 29.39 995 10 16 0.00 0.00
1:58 am 01:58 Clear 25 -3.7 13 -10.7 59 59 N 12 19 29.43 997 10 16 0.00 0.00
2:58 am 02:58 Mostly Cloudy 24 -4.4 13 -10.7 62 62 NNW 10 17 29.51 999 10 16 0.00 0.00
3:03 am 03:03 Mostly Cloudy 25 -4 12 -11 59 59 NNW 9 15 29.51 999 10 16 0.00 0.00
3:58 am 03:58 Cloudy 22 -5.3 13 -10.8 66 66 S 6 9 29.56 1001 10 16 0.00 0.00
4:20 am 04:20 Cloudy with Light Snow 21 -6 14 -10 74 74 SSE 8 13 29.57 1002 10 16 0.00 0.00
4:58 am 04:58 Cloudy with Light Snow 21 -6.1 13 -10.4 72 72 SSE 10 17 29.58 1002 10 16 0.00 0.00
5:58 am 05:58 Cloudy with Light Snow 21 -5.9 13 -10.3 71 71 SSE 9 15 29.60 1002 10 16 0.00 0.00
6:58 am 06:58 Cloudy with Light Snow Showers 22 -5.5 13 -10.6 68 68 SE 10 17 29.61 1003 10 16 0.00 0.00
7:00 am 07:00 Cloudy 23 -5 12 -11 63 63 SE 14 22 29.61 1003 10 16 0.00 0.00
7:10 am 07:10 Cloudy with Light Snow Showers 23 -5 12 -11 63 63 SSE 13 20 29.61 1003 10 16 0.00 0.00
7:25 am 07:25 Cloudy with Light Snow Showers 23 -5 12 -11 63 63 SE 12 19 29.61 1003 10 16 0.00 0.00
7:26 am 07:26 Cloudy 23 -5 12 -11 63 63 SE 12 19 29.61 1003 10 16 0.00 0.00
7:36 am 07:36 Cloudy with Light Snow Showers 23 -5 12 -11 63 63 SSE 12 19 29.62 1003 10 16 0.00 0.00
7:51 am 07:51 Cloudy with Light Snow Showers 23 -5 12 -11 63 63 S 14 22 29.62 1003 6 10 0.00 0.00
7:58 am 07:58 Cloudy with Light Snow Showers 23 -4.9 12 -11 63 63 S 15 24 29.62 1003 2 2 0.00 0.00
8:13 am 08:13 Cloudy with Light Snow Showers 21 -6 14 -10 74 74 SSE 15 24 29.62 1003 1 2 0.00 0.00
8:31 am 08:31 Cloudy with Snow Showers 21 -6 16 -9 80 80 SSE 15 24 29.64 1004 5 8 0.00 0.00
8:44 am 08:44 Cloudy with Light Snow 21 -6 16 -9 80 80 SSE 17 28 29.62 1003 1 1 0.00 0.00
8:58 am 08:58 Windy with Snow Likely 21 -6 16 -8.9 80 80 SSE 20 31 29.64 1004 1 2 0.00 0.00
9:40 am 09:40 Cloudy with Snow 21 -6 16 -9 80 80 SSE 16 26 29.65 1004 1 1 0.00 0.00
9:53 am 09:53 Cloudy with Light Snow 21 -6 16 -9 80 80 SSE 17 28 29.66 1005 5 8 0.00 0.00
9:58 am 09:58 Cloudy with Light Snow 20 -6.4 17 -8.6 85 85 SSE 17 28 29.65 1004 1 1 0.00 0.00
10:13 am 10:13 Cloudy with Light Snow 21 -6 18 -8 86 86 SE 15 24 29.68 1005 2 4 0.00 0.00
10:28 am 10:28 Cloudy 23 -5 16 -9 74 74 SSE 16 26 29.73 1007 10 16 0.00 0.00
10:38 am 10:38 Mostly Cloudy 25 -4 16 -9 69 69 SSE 16 26 29.73 1007 10 16 0.00 0.00
10:48 am 10:48 Mostly Cloudy 25 -4 16 -9 69 69 SSE 14 22 29.74 1007 10 16 0.00 0.00
10:58 am 10:58 Mostly Cloudy 25 -4.1 15 -9.7 65 65 SSE 13 20 29.75 1008 10 16 0.00 0.00
10:59 am 10:59 Mostly Cloudy with Light Snow Showers 25 -4 16 -9 69 69 SE 13 20 29.75 1008 10 16 0.00 0.00
11:58 am 11:58 Mostly Cloudy with Light Snow Showers 25 -3.7 15 -9.2 66 66 SSE 14 22 29.77 1008 4 6 0.00 0.00
12:58 pm 12:58 Mostly Cloudy with Light Snow 26 -3.4 16 -8.7 67 67 S 14 22 29.78 1009 10 16 0.00 0.00
1:58 pm 13:58 Mostly Cloudy with Light Snow Showers 28 -2.1 15 -9.6 57 57 S 17 28 29.77 1008 10 16 0.00 0.00
2:58 pm 14:58 Mostly Cloudy with Light Snow 28 -2.2 15 -9.2 59 59 SSE 20 31 29.77 1008 10 16 0.00 0.00
3:05 pm 15:05 Mostly Cloudy with Light Snow 28 -2 16 -9 59 59 S 15 24 29.78 1009 10 16 0.00 0.00
3:58 pm 15:58 Mostly Cloudy with Light Snow 28 -2.2 16 -8.8 61 61 SE 20 31 29.81 1009 10 16 0.00 0.00
4:58 pm 16:58 Cloudy with Light Snow 28 -2.4 18 -7.8 67 67 SSE 15 24 29.83 1010 10 16 0.00 0.00
5:58 pm 17:58 Mostly Cloudy with Light Snow 26 -3.3 20 -6.4 79 79 S 13 20 29.86 1011 3 4 0.00 0.00
6:58 pm 18:58 Mostly Cloudy with Light Snow 27 -3 19 -7.4 72 72 SSE 13 20 29.89 1012 10 16 0.00 0.00
7:03 pm 19:03 Mostly Cloudy with Light Snow 27 -3 19 -7 74 74 SSE 13 20 29.89 1012 10 16 0.00 0.00
7:08 pm 19:08 Mostly Cloudy with Light Snow 27 -3 18 -8 69 69 SSE 13 20 29.89 1012 10 16 0.00 0.00
7:12 pm 19:12 Mostly Cloudy 27 -3 18 -8 69 69 SSE 13 20 29.89 1012 10 16 0.00 0.00
7:58 pm 19:58 Mostly Cloudy 25 -3.7 18 -7.7 74 74 SSE 8 13 29.92 1013 10 16 0.00 0.00
8:58 pm 20:58 Mostly Cloudy 26 -3.3 20 -6.8 77 77 Calm 29.98 1015 10 16 0.00 0.00
9:33 pm 21:33 Cloudy 27 -3 19 -7 74 74 Calm 30.01 1016 10 16 0.00 0.00
9:58 pm 21:58 Cloudy 26 -3.5 20 -6.8 78 78 N 3 6 30.03 1017 10 16 0.00 0.00
10:23 pm 22:23 Mostly Cloudy with Light Snow 27 -3 19 -7 74 74 NNW 3 6 30.02 1017 10 16 0.00 0.00
10:42 pm 22:42 Mostly Cloudy 25 -4 19 -7 80 80 NW 3 6 30.03 1017 10 16 0.00 0.00
10:50 pm 22:50 Mostly Cloudy with Light Snow Showers 25 -4 19 -7 80 80 Calm 30.03 1017 10 16 0.00 0.00
10:58 pm 22:58 Mostly Cloudy with Light Snow Showers 25 -3.8 20 -6.8 80 80 S 6 9 30.03 1017 9 14 0.00 0.00
11:20 pm 23:20 Mostly Cloudy 27 -3 18 -8 69 69 WNW 7 11 30.00 1016 10 16 0.00 0.00
11:58 pm 23:58 Clear 26 -3.1 17 -8.1 69 69 NW 8 13 30.02 1017 10 16 0.00 0.00

Powered by AerisWeather